User: anonymous   Login
Location: Camp Creek
(33.9000°N, 111.8167°W)
Time: 05:09:43
(UTC-07:00)
Language:

Cosmos 2322 Rocket - Orbit

View from above orbital plane
View from above orbital plane
View from above satellite
View from above satellite

Ground track
Ground track

The orbit data is extracted from the following two-line orbital elements,

1 23705U 95058B   14303.15500607 -.00000041  00000-0  33295-5 0  3839
2 23705 071.0242 245.2208 0014490 316.1250 043.8720 14.15031331981233
Epoch (UTC): 30 October 2014 03:43:12
Eccentricity: 0.0014490
inclination: 71.0242°
perigee height: 832 km
apogee height: 852 km
right ascension of ascending node: 245.2208°
argument of perigee: 316.1250°
revolutions per day: 14.15031331
mean anomaly at epoch: 43.8720°
orbit number at epoch: 98123

The dashed part of the orbit path shows where the satellite is in the earth's shadow,  

DLR